Quincy, IL

5:52 AM CST on November 20, 2019 (GMT -0600)
Quincy Regional-Baldwin

Weather History for KUIN - September, 2019

Change the Weather History Date:

Wednesday, September 25, 2019

  Actual Average Record
Temperature  
Mean Temperature 71 °F 62 °F  
Max Temperature 82 °F 73 °F 93 °F (1920)
Min Temperature 60 °F 52 °F 35 °F (1907)
Degree Days  
Heating Degree Days 0 5  
Month to date heating degree days 0 54  
Since 1 July heating degree days 2 59  
Cooling Degree Days 6 2  
Month to date cooling degree days 218 113  
Year to date cooling degree days 1275 1066  
Growing Degree Days 21 (Base 50)    
Moisture  
Dew Point 57 °F    
Average Humidity 68    
Maximum Humidity 93    
Minimum Humidity 38    
Precipitation  
Precipitation T in 0.11 in 2.43 in (1976)
Month to date precipitation 2.65 2.76  
Year to date precipitation 33.68 28.51  
Sea Level Pressure  
Sea Level Pressure 29.81 in    
Wind  
Wind Speed 8 mph ()    
Max Wind Speed 17 mph    
Max Gust Speed 24 mph    
Visibility 7.1 miles    
Events Rain    
T = Trace of Precipitation, MM = Missing Value Source: Averaged Metar Reports

Daily Weather History Graph

Daily Weather History Graph

Search for Another Location

Airport or City:

Astronomy

Sep. 25, 2019 Rise Set
Actual Time 6:55 AM CDT 6:57 PM CDT
Civil Twilight 6:28 AM CDT 7:24 PM CDT
Nautical Twilight 5:56 AM CDT 7:55 PM CDT
Astronomical Twilight 5:24 AM CDT 8:27 PM CDT
Moon 2:49 AM CDT (9/25) 5:29 PM CDT (9/25)
Length of Visible Light 12h 56m
Length of Day
12h 02m
Waning Crescent, 14% of the Moon is Illuminated
Sep 25
Waning Crescent
Sep 28
New
Oct 5
First Quarter
Oct 13
Full
Oct 21
Last Quarter

Hourly Weather History & Observations

Time (CDT) Temp. Heat Index Dew Point Humidity Pressure Visibility Wind Dir Wind Speed Gust Speed Precip Events Conditions
12:54 AM 64.9 °F - 53.1 °F 65% 29.79 in 8.0 mi South 9.2 mph - N/A   Clear
1:54 AM 64.9 °F - 54.0 °F 68% 29.77 in 8.0 mi South 11.5 mph - N/A   Mostly Cloudy
2:54 AM 64.0 °F - 55.0 °F 73% 29.75 in 9.0 mi SSW 11.5 mph - N/A   Partly Cloudy
3:25 AM 64.9 °F - 55.9 °F 73% 29.76 in 9.0 mi SSW 11.5 mph - N/A   Mostly Cloudy
3:51 AM 64.4 °F - 57.2 °F 77% 29.74 in 8.0 mi SSW 15.0 mph - N/A   Partly Cloudy
3:54 AM 64.9 °F - 57.0 °F 75% 29.72 in 8.0 mi SSW 16.1 mph - N/A   Partly Cloudy
4:44 AM 66.0 °F - 57.9 °F 75% 29.76 in 10.0 mi SW 9.2 mph - N/A   Overcast
4:54 AM 66.0 °F - 57.9 °F 75% 29.75 in 10.0 mi SW 10.4 mph - N/A   Overcast
5:27 AM 64.9 °F - 59.0 °F 81% 29.75 in 10.0 mi SSW 12.7 mph - 0.00 in   Overcast
5:54 AM 64.9 °F - 59.0 °F 81% 29.74 in 9.0 mi SSW 12.7 mph - 0.00 in Rain Light Rain
6:24 AM 64.9 °F - 60.1 °F 84% 29.76 in 10.0 mi SSW 13.8 mph - 0.00 in   Scattered Clouds
6:54 AM 64.0 °F - 60.1 °F 87% 29.74 in 9.0 mi South 5.8 mph - 0.00 in   Partly Cloudy
7:26 AM 64.0 °F - 60.1 °F 87% 29.79 in 10.0 mi SW 6.9 mph - N/A   Mostly Cloudy
7:54 AM 64.9 °F - 60.1 °F 84% 29.79 in 10.0 mi SW 6.9 mph - N/A   Overcast
8:54 AM 64.9 °F - 61.0 °F 87% 29.81 in 5.0 mi Calm Calm - N/A   Overcast
8:58 AM 64.9 °F - 61.0 °F 87% 29.82 in 2.5 mi SSW 3.5 mph - N/A   Overcast
9:08 AM 64.9 °F - 62.1 °F 90% 29.82 in 1.5 mi SSW 5.8 mph - 0.00 in Rain Light Rain
9:31 AM 64.9 °F - 63.0 °F 93% 29.82 in 5.0 mi South 5.8 mph - 0.00 in   Overcast
9:54 AM 66.9 °F - 64.0 °F 90% 29.81 in 7.0 mi South 5.8 mph - 0.00 in   Overcast
10:54 AM 69.1 °F - 64.9 °F 87% 29.82 in 9.0 mi West 5.8 mph - N/A   Overcast
11:47 AM 73.0 °F - 64.9 °F 76% 29.83 in 10.0 mi West 4.6 mph - N/A   Scattered Clouds
11:54 AM 73.9 °F - 64.0 °F 71% 29.82 in 10.0 mi NW 6.9 mph - N/A   Partly Cloudy
12:54 PM 77.0 °F - 62.1 °F 60% 29.81 in 10.0 mi NW 3.5 mph - N/A   Clear
1:54 PM 80.1 °F 80.7 °F 59.0 °F 48% 29.80 in 10.0 mi NNW 10.4 mph 20.7 mph N/A   Clear
2:54 PM 81.0 °F 80.8 °F 55.9 °F 42% 29.79 in 7.0 mi NNW 6.9 mph - N/A   Clear
3:54 PM 81.0 °F 80.4 °F 53.1 °F 38% 29.80 in 7.0 mi WNW 8.1 mph - N/A   Clear
4:54 PM 80.1 °F 80.0 °F 54.0 °F 40% 29.81 in 2.5 mi NW 6.9 mph - N/A   Haze
5:08 PM 80.1 °F 80.0 °F 54.0 °F 40% 29.82 in 1.5 mi NW 10.4 mph - N/A   Haze
5:38 PM 78.1 °F - 55.0 °F 45% 29.83 in 0.8 mi NW 9.2 mph - N/A   Haze
5:54 PM 77.0 °F - 55.0 °F 47% 29.82 in 0.5 mi NW 6.9 mph - N/A   Haze
6:07 PM 75.9 °F - 55.9 °F 50% 29.84 in 0.2 mi NW 6.9 mph - N/A   Haze
6:54 PM 70.0 °F - 57.0 °F 63% 29.84 in 0.2 mi NNW 6.9 mph - N/A   Haze
7:11 PM 70.0 °F - 55.9 °F 61% 29.85 in 1.0 mi NNW 4.6 mph - N/A   Haze
7:19 PM 70.0 °F - 55.9 °F 61% 29.86 in 10.0 mi NNW 5.8 mph - N/A   Clear
7:54 PM 66.9 °F - 55.0 °F 66% 29.87 in 10.0 mi NNW 8.1 mph - N/A   Clear
8:54 PM 66.0 °F - 51.1 °F 59% 29.90 in 10.0 mi North 8.1 mph - N/A   Partly Cloudy
9:54 PM 64.0 °F - 50.0 °F 60% 29.92 in 10.0 mi NNW 8.1 mph - N/A   Scattered Clouds
10:54 PM 64.9 °F - 46.0 °F 50% 29.94 in 10.0 mi NNW 10.4 mph - N/A   Mostly Cloudy
11:54 PM 63.0 °F - 46.9 °F 56% 29.92 in 10.0 mi NNW 10.4 mph - N/A   Partly Cloudy